This is the latest recevied weather packets stored in our database for station/object KJ5IIV. If no packets are shown the sender has not sent any weather packets the latest 10 day(s).
| Time | Temp. | Humidity | Pressure | Rain* | Wind** | Luminosity | Snow |
|---|---|---|---|---|---|---|---|
| 1778025504 | 27.78° C | 72% | 1005.1 hPa | 0 mm | - | 105 W/m² | - |
| 1778025202 | 27.78° C | 72% | 1005.3 hPa | 0 mm | - | 95 W/m² | - |
| 1778024899 | 27.78° C | 71% | 1005.2 hPa | 0 mm | - | 58 W/m² | - |
| 1778024597 | 28.33° C | 71% | 1004.9 hPa | 0 mm | - | 81 W/m² | - |
| 1778024293 | 28.33° C | 71% | 1004.8 hPa | 0 mm | - | 143 W/m² | - |
| 1778023991 | 27.78° C | 70% | 1005.2 hPa | 0 mm | - | 130 W/m² | - |
| 1778023688 | 28.33° C | 70% | 1005.1 hPa | 0 mm | - | 121 W/m² | - |
| 1778023386 | 28.33° C | 69% | 1004.9 hPa | 0 mm | - | 123 W/m² | - |
| 1778023082 | 28.33° C | 70% | 1005 hPa | 0 mm | - | 104 W/m² | - |
| 1778022781 | 28.33° C | 69% | 1005 hPa | 0 mm | - | 116 W/m² | - |
| 1778022478 | 28.33° C | 69% | 1004.9 hPa | 0 mm | - | 110 W/m² | - |
| 1778022175 | 28.33° C | 67% | 1004.8 hPa | 0 mm | - | 101 W/m² | - |
| 1778021872 | 28.33° C | 68% | 1004.9 hPa | 0 mm | - | 148 W/m² | - |
| 1778021569 | 28.89° C | 67% | 1004.8 hPa | 0 mm | - | 142 W/m² | - |
| 1778021263 | 28.89° C | 66% | 1004.9 hPa | 0 mm | - | 124 W/m² | - |
| 1778020962 | 29.44° C | 66% | 1004.8 hPa | 0 mm | - | 142 W/m² | - |
| 1778020659 | 28.89° C | 67% | 1004.8 hPa | 0 mm | - | 186 W/m² | - |
| 1778020355 | 28.89° C | 68% | 1004.7 hPa | 0 mm | - | 186 W/m² | - |
| 1778020051 | 28.89° C | 67% | 1004.7 hPa | 0 mm | - | 166 W/m² | - |
| 1778019747 | 28.89° C | 67% | 1005 hPa | 0 mm | - | 190 W/m² | - |
| 1778019445 | 28.89° C | 66% | 1004.7 hPa | 0 mm | - | 207 W/m² | - |
| 1778019141 | 28.89° C | 66% | 1004.7 hPa | 0 mm | - | 166 W/m² | - |
| 1778018838 | 28.89° C | 66% | 1004.6 hPa | 0 mm | - | 227 W/m² | - |
| 1778018536 | 28.33° C | 66% | 1004.4 hPa | 0 mm | - | 379 W/m² | - |
| 1778018234 | 28.33° C | 65% | 1004.9 hPa | 0 mm | - | 368 W/m² | - |
* Rain latest hour (hover to see other rain measurements)
** Current wind speed in m/s (hover to see current wind gust speed)